Location: Newark
(34.1333°N, 7.9667°W)
Time: 10:37:15
(UTC+00:00)

Transit 2A - Pass Details

Date: 16 June 2021
Orbit: 598 x 960 km, 66.7° (Epoch: 29 July)

Event Time Altitude Azimuth Distance (km) Brightness Sun altitude
Rises 17:35:55 0° 216° (SW) 2,899 9.3 24.1°
Reaches altitude 10° 17:38:15 10° 221° (SW) 1,966 8.6 23.7°
Maximum altitude 17:42:31 53° 299° (WNW) 742 7.2 22.8°
Drops below altitude 10° 17:46:45 10° 16° (NNE) 1,942 8.2 22.0°
Sets 17:49:03 0° 22° (NNE) 2,860 8.9 21.5°
